RH
20 21 21 21 23 24 25 27 26 27 28 28 26 25 24 24 22 21 22 22 34 36 25 23 11 6 11 8 6 6 8 42
20 24 22 22 24 24 24 28 31 32 32 30 30 27 26 28 25 25 27 24 27 45 29 25 22 6 6 7 6 6 8 23
25 26 23 24 25 28 25 26 31 34 34 33 31 30 29 31 32 33 34 30 26 33 35 33 31 28 6 6 6 6 8 13
29 26 27 27 30 28 29 32 35 38 39 37 36 34 34 37 41 39 38 35 32 31 38 39 36 38 40 11 6 6 7 11
39 33 32 29 28 35 37 37 42 45 44 44 41 37 38 42 44 50 49 49 43 39 34 36 35 39 39 33 30 13 7 8
45 42 36 36 32 52 44 45 45 53 53 51 44 34 35 40 49 53 62 62 57 50 41 32 35 32 30 28 25 38 19 13
46 45 40 35 43 56 80 60 68 78 77 67 60 42 44 44 47 51 62 63 66 64 56 38 32 36 34 45 53 38 24 12
44 45 45 42 36 55 71 90 91 95 88 79 80 66 55 53 45 46 57 67 66 66 68 62 31 25 31 29 42 35 27 23
43 50 41 32 30 37 39 65 82 96 96 97 88 80 58 63 52 49 54 60 69 68 66 63 63 55 28 28 29 26 32 26
53 46 44 48 25 21 23 33 61 67 94 92 94 99 94 75 66 62 68 60 56 63 65 61 62 61 72 33 36 25 28 26
63 60 53 46 46 36 22 20 26 75 55 84 86 95 97 98 74 64 72 67 49 52 52 50 52 58 42 74 44 29 27 27
60 68 61 56 48 40 36 29 28 24 51 48 78 80 100 94 85 74 81 80 60 54 63 39 46 42 37 36 81 55 33 32
32 56 57 62 58 50 40 35 30 25 21 36 41 56 74 99 86 83 95 87 62 60 61 51 53 53 24 39 50 72 62 35
51 40 50 57 62 66 57 42 34 28 18 14 16 29 63 47 57 95 95 88 60 44 50 50 47 60 32 33 37 56 72 53
68 69 64 57 54 50 56 62 59 47 27 19 15 18 30 62 80 96 97 98 58 57 38 43 62 58 45 24 26 38 72 67
74 66 65 62 56 51 52 51 50 57 55 44 29 18 18 17 60 84 75 99 84 55 34 33 52 49 48 19 17 30 36 66
79 68 57 58 56 47 50 53 55 55 54 52 49 28 23 15 15 25 96 98 95 98 81 30 52 81 56 26 30 12 14 44
53 56 60 54 58 57 47 48 56 56 56 53 51 47 32 21 14 18 17 90 98 89 91 66 64 95 75 20 16 11 11 20
43 44 49 50 48 52 53 48 47 58 67 54 48 48 47 39 25 20 18 23 63 87 94 88 96 97 95 73 25 16 19 18
11 11 22 22 26 28 33 37 44 41 42 62 54 48 46 45 41 33 27 40 29 61 84 96 98 98 96 100 41 33 24 23
Wind_Speed
31 32 32 33 33 33 32 30 30 29 29 29 28 27 26 25 22 20 18 19 19 18 16 17 18 19 17 15 16 16 16 14
33 34 35 35 35 36 36 35 33 32 31 30 28 28 27 26 25 21 17 16 17 16 15 16 15 18 19 18 17 16 17 16
37 36 38 37 38 38 38 39 36 36 34 32 30 29 29 28 27 23 19 16 15 16 16 16 14 12 18 20 19 18 16 15
41 41 41 41 40 40 41 40 38 37 36 34 31 30 29 28 27 27 23 19 17 19 19 19 17 16 16 20 22 21 20 19
42 43 43 44 44 43 42 42 40 39 37 35 31 31 30 29 29 27 28 22 20 19 19 20 19 17 17 21 23 24 23 24
45 46 46 45 47 44 44 43 43 43 40 36 34 33 31 29 30 30 26 26 24 20 19 21 23 20 18 18 22 27 27 26
47 47 47 47 46 48 46 46 45 43 44 43 42 38 34 29 30 31 30 28 29 25 22 22 22 24 21 18 18 22 25 26
44 45 48 49 49 50 49 49 46 47 45 46 42 44 36 29 30 30 31 30 31 31 27 23 24 23 24 21 18 20 22 25
44 43 43 45 44 47 51 49 47 45 47 52 52 47 43 34 34 33 30 31 32 30 29 28 24 24 22 21 19 20 22 23
45 46 44 44 42 44 45 47 48 49 47 46 47 54 42 40 36 33 31 31 33 35 32 31 29 26 25 21 20 20 21 24
43 46 50 48 49 50 50 50 50 49 47 48 49 45 50 44 38 36 35 35 33 33 37 37 36 29 28 27 19 20 22 24
48 49 52 53 51 52 54 53 54 54 53 50 52 52 56 54 40 42 37 38 34 36 34 38 40 37 31 27 27 21 19 22
60 57 54 55 56 54 54 56 55 55 55 54 53 52 48 47 50 51 45 40 37 39 38 37 42 39 38 27 28 28 21 21
57 61 60 56 57 59 57 56 56 57 57 55 55 55 55 59 54 54 43 43 44 45 43 41 42 45 40 35 29 30 25 24
56 57 57 58 59 58 57 57 57 59 59 59 58 59 58 57 57 59 56 48 47 49 50 49 42 47 46 39 34 27 28 32
51 56 57 57 57 58 58 57 55 58 60 60 61 60 61 61 58 56 59 49 53 48 52 54 50 48 50 42 35 31 30 33
52 51 54 58 58 58 57 58 58 58 61 62 63 64 64 63 62 56 58 59 57 60 60 55 55 50 49 45 37 35 31 34
52 51 50 52 54 56 56 57 59 60 63 64 66 66 67 67 66 66 61 59 58 60 59 68 64 55 53 49 37 37 31 36
46 48 47 49 50 52 53 55 57 59 63 66 67 68 67 66 67 67 68 62 60 58 56 61 64 61 50 45 38 39 40 35
49 46 47 49 49 51 54 56 56 56 57 62 66 67 67 67 67 68 67 67 64 62 60 62 66 58 59 47 40 40 43 37
Wind_Direction
261 263 262 265 265 266 268 270 271 270 271 272 271 274 277 281 281 282 285 287 287 285 281 280 277 259 263 264 266 274 279 295
258 257 260 261 263 265 268 268 270 271 272 274 276 276 277 281 281 283 287 290 286 283 286 279 276 268 263 262 262 268 281 293
261 256 256 257 260 262 264 268 268 271 273 273 274 275 280 282 283 283 286 291 284 285 285 277 272 280 270 264 264 267 274 282
262 262 259 256 255 258 261 262 264 267 270 272 274 275 276 282 287 287 286 284 277 276 281 278 272 265 265 264 262 263 267 275
262 261 260 260 258 257 258 261 262 265 266 270 272 275 277 280 280 280 286 284 277 280 276 274 273 259 262 263 269 272 270 271
259 260 257 256 259 257 259 259 262 262 263 266 266 267 271 274 276 277 279 285 284 280 278 280 272 268 260 259 265 266 272 271
263 263 260 256 254 256 255 256 256 255 259 261 260 262 263 264 270 274 274 276 281 283 283 280 275 273 266 261 262 266 267 268
268 266 266 261 255 254 255 255 251 252 253 257 253 257 260 258 261 263 267 272 275 280 283 278 281 277 272 267 266 262 268 270
275 269 266 266 263 263 261 257 258 250 245 245 253 251 246 259 256 256 258 266 269 274 279 282 273 274 274 261 260 267 269 269
272 267 263 260 259 259 259 260 257 255 250 254 261 244 249 247 251 253 252 255 264 272 272 275 278 275 270 265 253 257 263 267
275 268 262 253 255 254 253 252 254 252 249 254 260 248 243 238 244 247 250 253 253 260 270 275 274 272 269 271 256 251 255 263
273 265 261 261 252 250 252 252 254 254 254 246 247 251 258 236 241 243 245 248 250 256 258 268 268 268 268 266 270 258 253 257
269 265 262 258 257 255 249 251 251 252 254 254 252 247 252 263 263 239 240 248 253 252 253 258 265 267 267 266 269 272 258 254
267 264 261 259 257 255 253 249 250 250 250 250 250 250 252 255 260 232 238 246 249 252 254 255 258 265 265 266 263 268 274 257
263 260 257 256 255 255 253 252 249 249 249 249 248 250 251 251 252 254 249 240 246 250 250 253 252 258 262 260 263 266 265 257
265 257 257 256 254 253 253 251 249 249 248 247 248 249 250 252 252 251 249 249 248 249 250 250 250 251 257 258 261 260 262 262
273 267 259 257 254 253 251 251 249 247 249 247 245 245 247 247 250 250 252 247 245 251 251 246 243 247 249 253 255 260 264 263
269 265 262 259 257 256 253 251 249 248 248 248 247 245 244 244 246 249 247 253 244 244 245 246 243 236 239 244 250 261 262 267
269 266 261 258 258 256 255 253 250 248 247 247 248 247 245 243 244 244 247 245 250 251 248 249 251 236 235 244 245 255 260 267
272 267 263 263 260 256 254 254 253 251 249 247 247 247 246 245 244 243 243 245 245 242 242 247 253 258 262 245 245 253 260 263